Location: Asheville, NC
(35.6000°N, 82.5500°W)
Time: 09:40:14

Vanguard 1 Rocket - Pass Details

Date: 13 March 2018
Orbit: 655 x 4222 km, 34.3° (Epoch: 19 March)

Event Time Altitude Azimuth Distance (km) Brightness Sun altitude
Rises 23:37:47 0° 281° (WNW) 5,262 11.9 -46.6°
Reaches altitude 10° 23:40:34 10° 279° (W) 4,613 11.4 -47.0°
Enters shadow 23:52:42 67° 232° (SW) 3,246 9.8 -48.7°
Maximum altitude 23:54:47 71° 200° (SSW) 3,343 - -49.0°
Drops below altitude 10° 00:19:32 10° 122° (ESE) 7,400 - -52.1°
Sets 00:25:33 0° 121° (ESE) 8,451 - -52.8°
